Snow/Ice From: 16-12-2017 16:00 Until: 17-12-2017 16:00 warning for: Snow/Ice Level: Yellow info button

Although rather usual in this region, locally or potentially dangerous phenomena are expected. (such as local winds, summer thunderstorms, rising streams or high waves) Be aware and pay attention to the latest weather updates, especially if you carry out activities exposed to weather or close to a stream or shoreline. 


Meteo18 Weather Cam more information Meteo18 Weather Cam


Thunder radar more information blitzortung!


warning for Snow/Ice more information rain snow radar


Visit our other weather sites:

Template documentation
and downloads

And another site



Weather Underground History page Text

Daily Summary for August 18, 2016 Units:  Metric    English   Both
« Previous Day
Next Day »
Daily Weekly Monthly Yearly Custom
  High: Low: Average:
Temperature: 23.7 °C 14.5 °C 20.9 °C
Dew Point: 18.1 °C 11.1 °C 15.3 °C
Humidity: 90 % 49 % 72 %
Wind Speed: 24.1 km/h 0.0 km/h 7.8 km/h
Wind Gust: 37.0 km/h - -
Wind:- - WSW
Pressure: 1011.4 hPa 1009.7 hPa -
Precipitation: 0.3 mm    
Historical Graphs
 
 
Tabular Data for August 18, 2016
Time Temperature Dew Point Pressure Wind Wind Speed Wind Gust Humidity Rainfall Rate (Hourly)
00:02 23.6 °C 18.0 °C 1010.0 hPa West 16.1 km/h 24.1 km/h 71 % 0.0 mm
00:07 23.4 °C 17.8 °C 1010.0 hPa West 9.7 km/h 25.7 km/h 71 % 0.0 mm
00:12 23.4 °C 17.8 °C 1010.0 hPa West 9.7 km/h 25.7 km/h 71 % 0.0 mm
00:17 23.3 °C 17.7 °C 1010.0 hPa WNW 8.0 km/h 25.7 km/h 71 % 0.0 mm
00:22 23.2 °C 17.6 °C 1010.0 hPa WNW 8.0 km/h 22.5 km/h 71 % 0.0 mm
00:32 23.1 °C 17.8 °C 1010.4 hPa West 9.7 km/h 20.9 km/h 72 % 0.0 mm
00:42 23.0 °C 17.7 °C 1010.4 hPa West 4.8 km/h 19.3 km/h 72 % 0.0 mm
00:47 22.9 °C 17.6 °C 1010.4 hPa ESE 3.2 km/h 17.7 km/h 72 % 0.0 mm
00:52 22.9 °C 17.8 °C 1010.4 hPa West 3.2 km/h 19.3 km/h 73 % 0.0 mm
01:02 22.8 °C 17.7 °C 1010.4 hPa South 3.2 km/h 19.3 km/h 73 % 0.0 mm
01:12 22.7 °C 17.6 °C 1010.4 hPa West 3.2 km/h 22.5 km/h 73 % 0.0 mm
01:17 22.7 °C 17.6 °C 1010.0 hPa WSW 4.8 km/h 22.5 km/h 73 % 0.0 mm
01:22 22.7 °C 17.6 °C 1010.0 hPa WSW 6.4 km/h 20.9 km/h 73 % 0.0 mm
01:27 22.7 °C 17.6 °C 1010.0 hPa SSW 4.8 km/h 20.9 km/h 73 % 0.0 mm
01:32 22.6 °C 17.7 °C 1010.0 hPa SSW 9.7 km/h 24.1 km/h 74 % 0.0 mm
01:37 22.6 °C 17.7 °C 1010.0 hPa WSW 14.5 km/h 24.1 km/h 74 % 0.0 mm
01:42 22.6 °C 17.7 °C 1010.0 hPa WNW 6.4 km/h 19.3 km/h 74 % 0.0 mm
01:47 22.5 °C 17.6 °C 1010.0 hPa SSW 11.3 km/h 17.7 km/h 74 % 0.0 mm
01:52 22.5 °C 17.6 °C 1010.0 hPa WSW 14.5 km/h 19.3 km/h 74 % 0.0 mm
01:57 22.4 °C 17.5 °C 1010.0 hPa West 1.6 km/h 20.9 km/h 74 % 0.0 mm
02:02 22.4 °C 17.5 °C 1010.0 hPa WSW 4.8 km/h 20.9 km/h 74 % 0.0 mm
02:12 22.3 °C 17.7 °C 1010.0 hPa West 11.3 km/h 19.3 km/h 75 % 0.0 mm
02:17 22.2 °C 17.6 °C 1010.0 hPa West 11.3 km/h 20.9 km/h 75 % 0.0 mm
02:22 22.2 °C 17.6 °C 1010.0 hPa West 8.0 km/h 20.9 km/h 75 % 0.0 mm
02:32 22.1 °C 17.5 °C 1010.0 hPa WSW 8.0 km/h 20.9 km/h 75 % 0.0 mm
02:37 22.0 °C 17.4 °C 1010.0 hPa SSW 4.8 km/h 17.7 km/h 75 % 0.0 mm
02:42 21.9 °C 17.3 °C 1010.0 hPa West 4.8 km/h 17.7 km/h 75 % 0.0 mm
02:52 21.8 °C 17.2 °C 1010.0 hPa SW 11.3 km/h 19.3 km/h 75 % 0.0 mm
03:02 21.7 °C 17.1 °C 1010.0 hPa WSW 12.9 km/h 17.7 km/h 75 % 0.0 mm
03:07 21.6 °C 17.2 °C 1010.0 hPa SW 9.7 km/h 17.7 km/h 76 % 0.0 mm
03:17 21.4 °C 17.0 °C 1010.0 hPa NW 8.0 km/h 17.7 km/h 76 % 0.0 mm
03:22 21.4 °C 17.0 °C 1010.0 hPa SW 6.4 km/h 17.7 km/h 76 % 0.0 mm
03:32 21.3 °C 16.9 °C 1010.0 hPa WSW 9.7 km/h 17.7 km/h 76 % 0.0 mm
03:37 21.3 °C 17.1 °C 1010.0 hPa SW 9.7 km/h 17.7 km/h 77 % 0.0 mm
03:42 21.2 °C 17.0 °C 1009.7 hPa SSW 4.8 km/h 17.7 km/h 77 % 0.0 mm
03:47 21.2 °C 17.0 °C 1009.7 hPa WSW 4.8 km/h 16.1 km/h 77 % 0.0 mm
03:52 21.1 °C 17.1 °C 1009.7 hPa West 9.7 km/h 17.7 km/h 78 % 0.0 mm
03:57 21.0 °C 17.0 °C 1009.7 hPa West 12.9 km/h 17.7 km/h 78 % 0.0 mm
04:02 21.0 °C 17.0 °C 1009.7 hPa West 8.0 km/h 14.5 km/h 78 % 0.0 mm
04:07 21.0 °C 17.0 °C 1009.7 hPa WSW 4.8 km/h 14.5 km/h 78 % 0.0 mm
04:12 20.9 °C 16.9 °C 1009.7 hPa South 3.2 km/h 16.1 km/h 78 % 0.0 mm
04:17 20.9 °C 17.1 °C 1009.7 hPa West 8.0 km/h 16.1 km/h 79 % 0.0 mm
04:22 20.9 °C 17.1 °C 1009.7 hPa WSW 8.0 km/h 17.7 km/h 79 % 0.0 mm
04:27 20.8 °C 17.0 °C 1009.7 hPa West 4.8 km/h 17.7 km/h 79 % 0.0 mm
04:32 20.8 °C 17.0 °C 1010.0 hPa WNW 3.2 km/h 17.7 km/h 79 % 0.0 mm
04:37 20.7 °C 16.9 °C 1010.0 hPa SW 8.0 km/h 14.5 km/h 79 % 0.0 mm
04:42 20.6 °C 17.0 °C 1010.0 hPa SW 8.0 km/h 17.7 km/h 80 % 0.0 mm
04:47 20.5 °C 16.9 °C 1010.0 hPa WSW 8.0 km/h 17.7 km/h 80 % 0.0 mm
04:52 20.4 °C 16.8 °C 1010.0 hPa West 12.9 km/h 17.7 km/h 80 % 0.0 mm
05:02 20.4 °C 16.8 °C 1010.0 hPa WSW 9.7 km/h 20.9 km/h 80 % 0.0 mm
05:12 20.3 °C 16.9 °C 1010.0 hPa SW 6.4 km/h 20.9 km/h 81 % 0.0 mm
05:17 20.3 °C 16.9 °C 1010.0 hPa South 3.2 km/h 17.7 km/h 81 % 0.0 mm
05:22 20.3 °C 16.7 °C 1010.0 hPa WSW 6.4 km/h 17.7 km/h 80 % 0.0 mm
05:32 20.3 °C 16.9 °C 1010.0 hPa West 11.3 km/h 17.7 km/h 81 % 0.0 mm
05:42 20.3 °C 16.7 °C 1010.0 hPa WSW 4.8 km/h 14.5 km/h 80 % 0.0 mm
05:47 20.3 °C 16.7 °C 1010.0 hPa WSW 8.0 km/h 16.1 km/h 80 % 0.0 mm
05:52 20.3 °C 16.7 °C 1010.0 hPa SW 8.0 km/h 16.1 km/h 80 % 0.0 mm
06:02 20.3 °C 16.7 °C 1010.0 hPa SW 8.0 km/h 14.5 km/h 80 % 0.0 mm
06:12 20.3 °C 16.7 °C 1010.0 hPa WSW 8.0 km/h 22.5 km/h 80 % 0.0 mm
06:17 20.2 °C 16.8 °C 1010.0 hPa WSW 4.8 km/h 22.5 km/h 81 % 0.0 mm
06:22 19.9 °C 16.7 °C 1010.0 hPa WSW 8.0 km/h 22.5 km/h 82 % 0.0 mm
06:32 19.5 °C 16.7 °C 1010.0 hPa West 9.7 km/h 17.7 km/h 84 % 0.0 mm
06:42 19.6 °C 16.6 °C 1010.0 hPa WSW 8.0 km/h 19.3 km/h 83 % 0.0 mm
06:52 19.6 °C 16.6 °C 1010.0 hPa SSW 6.4 km/h 22.5 km/h 83 % 0.0 mm
06:57 19.5 °C 16.5 °C 1010.0 hPa West 9.7 km/h 20.9 km/h 83 % 0.0 mm
07:02 19.4 °C 16.6 °C 1010.0 hPa West 11.3 km/h 20.9 km/h 84 % 0.0 mm
07:12 19.4 °C 16.6 °C 1010.0 hPa SW 8.0 km/h 20.9 km/h 84 % 0.0 mm
07:17 19.4 °C 16.6 °C 1010.0 hPa West 3.2 km/h 17.7 km/h 84 % 0.0 mm
07:22 19.6 °C 16.6 °C 1010.4 hPa WSW 9.7 km/h 17.7 km/h 83 % 0.0 mm
07:32 19.7 °C 16.5 °C 1010.4 hPa SW 4.8 km/h 17.7 km/h 82 % 0.0 mm
07:42 19.6 °C 16.8 °C 1010.4 hPa West 1.6 km/h 17.7 km/h 84 % 0.0 mm
07:52 19.6 °C 17.0 °C 1010.4 hPa SW 8.0 km/h 11.3 km/h 85 % 0.0 mm
08:02 19.2 °C 17.0 °C 1010.4 hPa SW 8.0 km/h 14.5 km/h 87 % 0.0 mm
08:12 18.9 °C 17.0 °C 1010.7 hPa SW 4.8 km/h 14.5 km/h 89 % 0.0 mm
08:17 18.8 °C 17.1 °C 1010.7 hPa SW 9.7 km/h 14.5 km/h 90 % 0.0 mm
08:22 18.8 °C 17.1 °C 1010.7 hPa WSW 3.2 km/h 12.9 km/h 90 % 0.0 mm
08:27 18.9 °C 17.0 °C 1010.7 hPa WSW 4.8 km/h 11.3 km/h 89 % 0.0 mm
08:32 19.0 °C 17.0 °C 1010.7 hPa SW 12.9 km/h 12.9 km/h 88 % 0.0 mm
08:42 19.3 °C 17.1 °C 1010.7 hPa WSW 6.4 km/h 12.9 km/h 87 % 0.0 mm
08:52 19.5 °C 17.1 °C 1010.7 hPa WSW 6.4 km/h 12.9 km/h 86 % 0.0 mm
09:02 19.6 °C 17.0 °C 1010.7 hPa SSW 9.7 km/h 12.9 km/h 85 % 0.0 mm
09:12 19.8 °C 17.0 °C 1010.7 hPa SW 8.0 km/h 16.1 km/h 84 % 0.0 mm
09:17 19.8 °C 17.0 °C 1010.7 hPa WSW 3.2 km/h 16.1 km/h 84 % 0.0 mm
09:22 19.9 °C 17.1 °C 1010.7 hPa SW 1.6 km/h 16.1 km/h 84 % 0.0 mm
09:32 20.4 °C 17.2 °C 1010.7 hPa SW 9.7 km/h 16.1 km/h 82 % 0.0 mm
09:42 20.7 °C 17.1 °C 1010.7 hPa SW 8.0 km/h 14.5 km/h 80 % 0.0 mm
09:47 20.7 °C 17.1 °C 1010.4 hPa West 9.7 km/h 19.3 km/h 80 % 0.0 mm
09:52 20.7 °C 17.1 °C 1010.7 hPa West 6.4 km/h 19.3 km/h 80 % 0.0 mm
09:57 20.9 °C 17.1 °C 1010.7 hPa SW 6.4 km/h 16.1 km/h 79 % 0.0 mm
10:02 20.9 °C 16.9 °C 1010.7 hPa WSW 8.0 km/h 16.1 km/h 78 % 0.0 mm
10:12 21.3 °C 17.3 °C 1010.7 hPa SW 12.9 km/h 20.9 km/h 78 % 0.0 mm
10:17 21.2 °C 17.2 °C 1010.7 hPa WSW 8.0 km/h 22.5 km/h 78 % 0.0 mm
10:22 21.4 °C 17.2 °C 1010.7 hPa West 9.7 km/h 22.5 km/h 77 % 0.0 mm
10:32 21.3 °C 17.1 °C 1010.7 hPa WSW 16.1 km/h 22.5 km/h 77 % 0.0 mm
10:42 21.9 °C 17.1 °C 1010.4 hPa West 1.6 km/h 22.5 km/h 74 % 0.0 mm
10:47 22.2 °C 17.1 °C 1010.4 hPa SSW 16.1 km/h 22.5 km/h 73 % 0.0 mm
10:52 22.6 °C 17.1 °C 1010.4 hPa SW 12.9 km/h 22.5 km/h 71 % 0.0 mm
10:57 22.8 °C 17.3 °C 1010.4 hPa SW 14.5 km/h 20.9 km/h 71 % 0.0 mm
11:02 23.0 °C 17.0 °C 1010.4 hPa WSW 14.5 km/h 20.9 km/h 69 % 0.0 mm
11:12 22.7 °C 17.2 °C 1010.4 hPa WSW 14.5 km/h 25.7 km/h 71 % 0.0 mm
11:22 22.7 °C 17.2 °C 1010.4 hPa SSW 9.7 km/h 20.9 km/h 71 % 0.0 mm
11:32 22.4 °C 16.9 °C 1010.4 hPa WSW 9.7 km/h 22.5 km/h 71 % 0.0 mm
11:37 22.0 °C 17.2 °C 1010.4 hPa WSW 9.7 km/h 24.1 km/h 74 % 0.0 mm
11:42 21.4 °C 17.4 °C 1010.4 hPa SW 9.7 km/h 25.7 km/h 78 % 0.0 mm
11:47 20.8 °C 17.4 °C 1010.4 hPa WSW 9.7 km/h 25.7 km/h 81 % 0.0 mm
11:52 20.7 °C 17.5 °C 1010.4 hPa WSW 1.6 km/h 25.7 km/h 82 % 0.0 mm
12:02 21.1 °C 17.5 °C 1010.7 hPa NW 4.8 km/h 16.1 km/h 80 % 0.0 mm
12:12 21.2 °C 17.8 °C 1010.4 hPa WNW 9.7 km/h 16.1 km/h 81 % 0.0 mm
12:17 21.1 °C 17.7 °C 1010.4 hPa WSW 8.0 km/h 16.1 km/h 81 % 0.0 mm
12:22 21.2 °C 17.8 °C 1010.4 hPa WNW 6.4 km/h 14.5 km/h 81 % 0.0 mm
12:47 21.1 °C 18.1 °C 1010.4 hPa SSW 6.4 km/h 17.7 km/h 83 % 0.0 mm
12:52 21.0 °C 18.0 °C 1010.4 hPa SW 17.7 km/h 17.7 km/h 83 % 0.0 mm
12:57 20.5 °C 17.9 °C 1010.4 hPa WNW 8.0 km/h 17.7 km/h 85 % 0.3 mm
13:02 20.3 °C 17.7 °C 1010.4 hPa South 3.2 km/h 17.7 km/h 85 % 0.3 mm
13:12 20.3 °C 17.7 °C 1010.4 hPa WSW 6.4 km/h 17.7 km/h 85 % 0.3 mm
13:17 20.2 °C 17.6 °C 1010.4 hPa SW 9.7 km/h 17.7 km/h 85 % 0.3 mm
13:22 20.3 °C 17.7 °C 1010.4 hPa WSW 12.9 km/h 14.5 km/h 85 % 0.3 mm
13:32 20.4 °C 18.0 °C 1010.4 hPa SW 3.2 km/h 17.7 km/h 86 % 0.3 mm
13:37 20.4 °C 18.0 °C 1010.4 hPa WSW 3.2 km/h 17.7 km/h 86 % 0.3 mm
13:42 20.4 °C 17.8 °C 1010.4 hPa WNW 6.4 km/h 17.7 km/h 85 % 0.3 mm
13:47 20.4 °C 18.0 °C 1010.4 hPa NW 1.6 km/h 17.7 km/h 86 % 0.3 mm
13:52 20.5 °C 17.9 °C 1010.4 hPa WNW 6.4 km/h 16.1 km/h 85 % 0.3 mm
13:57 20.6 °C 17.6 °C 1010.4 hPa West 8.0 km/h 17.7 km/h 83 % 0.0 mm
14:02 20.7 °C 17.7 °C 1010.4 hPa West 1.6 km/h 17.7 km/h 83 % 0.0 mm
14:07 20.8 °C 17.6 °C 1010.4 hPa West 8.0 km/h 17.7 km/h 82 % 0.0 mm
14:12 21.1 °C 17.5 °C 1010.4 hPa WSW 9.7 km/h 12.9 km/h 80 % 0.0 mm
14:22 21.0 °C 17.0 °C 1010.7 hPa West 12.9 km/h 16.1 km/h 78 % 0.0 mm
14:32 20.9 °C 16.9 °C 1010.7 hPa WNW 16.1 km/h 19.3 km/h 78 % 0.0 mm
14:37 20.9 °C 16.9 °C 1010.7 hPa West 8.0 km/h 19.3 km/h 78 % 0.0 mm
14:42 21.1 °C 17.1 °C 1010.7 hPa WNW 11.3 km/h 19.3 km/h 78 % 0.0 mm
14:52 21.4 °C 16.8 °C 1010.7 hPa NW 4.8 km/h 19.3 km/h 75 % 0.0 mm
14:57 21.7 °C 16.4 °C 1010.7 hPa WNW 12.9 km/h 19.3 km/h 72 % 0.0 mm
15:07 21.9 °C 16.0 °C 1010.7 hPa West 8.0 km/h 24.1 km/h 69 % 0.0 mm
15:17 22.4 °C 15.5 °C 1010.4 hPa WSW 11.3 km/h 27.4 km/h 65 % 0.0 mm
15:22 22.6 °C 15.7 °C 1010.4 hPa WSW 14.5 km/h 24.1 km/h 65 % 0.0 mm
15:32 22.8 °C 15.4 °C 1010.4 hPa West 16.1 km/h 24.1 km/h 63 % 0.0 mm
15:37 22.9 °C 14.5 °C 1010.4 hPa WSW 12.9 km/h 24.1 km/h 59 % 0.0 mm
15:42 23.1 °C 14.4 °C 1010.4 hPa West 9.7 km/h 27.4 km/h 58 % 0.0 mm
15:47 23.2 °C 14.5 °C 1010.4 hPa West 14.5 km/h 27.4 km/h 58 % 0.0 mm
15:52 23.4 °C 14.1 °C 1010.4 hPa WNW 11.3 km/h 27.4 km/h 56 % 0.0 mm
16:02 23.2 °C 13.9 °C 1010.0 hPa West 17.7 km/h 27.4 km/h 56 % 0.0 mm
16:07 23.3 °C 13.8 °C 1010.0 hPa West 12.9 km/h 25.7 km/h 55 % 0.0 mm
16:12 23.4 °C 13.8 °C 1010.0 hPa WSW 9.7 km/h 24.1 km/h 55 % 0.0 mm
16:17 23.6 °C 14.0 °C 1010.0 hPa WSW 19.3 km/h 24.1 km/h 55 % 0.0 mm
16:22 23.6 °C 12.9 °C 1010.0 hPa WNW 8.0 km/h 27.4 km/h 51 % 0.0 mm
16:32 23.7 °C 13.0 °C 1010.0 hPa West 19.3 km/h 29.0 km/h 51 % 0.0 mm
16:37 23.2 °C 13.1 °C 1010.0 hPa West 14.5 km/h 27.4 km/h 53 % 0.0 mm
16:42 23.6 °C 13.5 °C 1010.0 hPa WSW 24.1 km/h 27.4 km/h 53 % 0.0 mm
16:47 23.5 °C 12.8 °C 1010.0 hPa WSW 9.7 km/h 37.0 km/h 51 % 0.0 mm
16:52 23.1 °C 13.0 °C 1010.0 hPa SSW 14.5 km/h 37.0 km/h 53 % 0.0 mm
16:57 23.1 °C 13.0 °C 1010.0 hPa West 8.0 km/h 37.0 km/h 53 % 0.0 mm
17:02 23.5 °C 12.8 °C 1010.0 hPa WSW 16.1 km/h 25.7 km/h 51 % 0.0 mm
17:12 23.1 °C 13.0 °C 1010.0 hPa WSW 20.9 km/h 24.1 km/h 53 % 0.0 mm
17:17 23.3 °C 12.6 °C 1010.0 hPa West 17.7 km/h 27.4 km/h 51 % 0.0 mm
17:22 23.4 °C 12.4 °C 1010.0 hPa WSW 12.9 km/h 29.0 km/h 50 % 0.0 mm
17:37 23.7 °C 12.7 °C 1010.0 hPa West 9.7 km/h 29.0 km/h 50 % 0.0 mm
17:42 23.4 °C 12.4 °C 1010.4 hPa West 17.7 km/h 29.0 km/h 50 % 0.0 mm
17:52 23.1 °C 12.7 °C 1010.4 hPa WNW 12.9 km/h 30.6 km/h 52 % 0.0 mm
17:57 23.2 °C 12.5 °C 1010.4 hPa WNW 16.1 km/h 30.6 km/h 51 % 0.0 mm
18:02 23.1 °C 12.4 °C 1010.4 hPa West 16.1 km/h 29.0 km/h 51 % 0.0 mm
18:12 22.9 °C 12.2 °C 1010.4 hPa WNW 12.9 km/h 27.4 km/h 51 % 0.0 mm
18:17 22.6 °C 12.2 °C 1010.4 hPa WNW 4.8 km/h 27.4 km/h 52 % 0.0 mm
18:22 22.9 °C 12.8 °C 1010.4 hPa West 12.9 km/h 27.4 km/h 53 % 0.0 mm
18:32 23.0 °C 12.3 °C 1010.4 hPa WSW 14.5 km/h 22.5 km/h 51 % 0.0 mm
18:42 22.5 °C 12.4 °C 1010.4 hPa SW 14.5 km/h 20.9 km/h 53 % 0.0 mm
18:47 23.1 °C 12.7 °C 1010.4 hPa West 8.0 km/h 14.5 km/h 52 % 0.0 mm
18:57 23.2 °C 11.9 °C 1010.7 hPa SW 16.1 km/h 27.4 km/h 49 % 0.0 mm
19:02 23.1 °C 11.8 °C 1010.4 hPa West 16.1 km/h 27.4 km/h 49 % 0.0 mm
19:12 23.0 °C 12.0 °C 1010.7 hPa WNW 8.0 km/h 22.5 km/h 50 % 0.0 mm
19:22 22.8 °C 11.8 °C 1010.7 hPa WSW 11.3 km/h 19.3 km/h 50 % 0.0 mm
19:27 22.6 °C 11.6 °C 1010.4 hPa WNW 12.9 km/h 19.3 km/h 50 % 0.0 mm
19:32 22.6 °C 11.9 °C 1010.7 hPa West 12.9 km/h 19.3 km/h 51 % 0.0 mm
19:42 22.2 °C 11.6 °C 1010.7 hPa WNW 12.9 km/h 22.5 km/h 51 % 0.0 mm
19:47 22.4 °C 11.8 °C 1010.7 hPa SW 3.2 km/h 22.5 km/h 51 % 0.0 mm
19:57 22.7 °C 11.7 °C 1010.7 hPa WNW 6.4 km/h 16.1 km/h 50 % 0.0 mm
20:02 22.4 °C 11.5 °C 1010.7 hPa West 8.0 km/h 19.3 km/h 50 % 0.0 mm
20:07 22.3 °C 11.7 °C 1010.7 hPa West 8.0 km/h 19.3 km/h 51 % 0.0 mm
20:22 22.1 °C 11.8 °C 1010.7 hPa West 4.8 km/h 14.5 km/h 52 % 0.0 mm
20:27 21.9 °C 11.6 °C 1010.7 hPa NW 4.8 km/h 11.3 km/h 52 % 0.0 mm
20:32 21.7 °C 11.7 °C 1010.7 hPa WNW 3.2 km/h 12.9 km/h 53 % 0.0 mm
20:37 21.5 °C 11.5 °C 1010.7 hPa WNW 1.6 km/h 12.9 km/h 53 % 0.0 mm
20:42 21.2 °C 11.5 °C 1010.7 hPa WNW 1.6 km/h 12.9 km/h 54 % 0.0 mm
20:47 20.9 °C 11.5 °C 1011.1 hPa WNW 3.2 km/h 8.0 km/h 55 % 0.0 mm
20:52 20.7 °C 11.6 °C 1010.7 hPa WNW 3.2 km/h 4.8 km/h 56 % 0.0 mm
20:57 20.4 °C 11.6 °C 1011.1 hPa WNW 4.8 km/h 4.8 km/h 57 % 0.0 mm
21:02 20.3 °C 11.5 °C 1011.1 hPa WNW 3.2 km/h 4.8 km/h 57 % 0.0 mm
21:07 20.1 °C 11.6 °C 1011.1 hPa WNW 4.8 km/h 6.4 km/h 58 % 0.0 mm
21:12 19.9 °C 11.6 °C 1011.1 hPa WNW 3.2 km/h 8.0 km/h 59 % 0.0 mm
21:17 19.6 °C 11.4 °C 1011.1 hPa Calm   8.0 km/h 59 % 0.0 mm
21:22 19.4 °C 11.4 °C 1011.1 hPa West 1.6 km/h 8.0 km/h 60 % 0.0 mm
21:27 19.3 °C 11.6 °C 1011.1 hPa West 1.6 km/h 4.8 km/h 61 % 0.0 mm
21:37 18.8 °C 11.6 °C 1011.1 hPa WNW 3.2 km/h 4.8 km/h 63 % 0.0 mm
21:42 18.4 °C 11.5 °C 1011.1 hPa West 1.6 km/h 4.8 km/h 64 % 0.0 mm
21:52 17.9 °C 11.2 °C 1011.1 hPa Calm   4.8 km/h 65 % 0.0 mm
21:57 17.6 °C 11.4 °C 1011.1 hPa WNW 1.6 km/h 3.2 km/h 67 % 0.0 mm
22:02 17.4 °C 11.4 °C 1011.1 hPa Calm   3.2 km/h 68 % 0.0 mm
22:07 17.3 °C 11.6 °C 1011.4 hPa Calm   3.2 km/h 69 % 0.0 mm
22:12 17.1 °C 11.6 °C 1011.1 hPa Calm   1.6 km/h 70 % 0.0 mm
22:17 16.9 °C 11.6 °C 1011.4 hPa Calm   1.6 km/h 71 % 0.0 mm
22:22 16.8 °C 11.7 °C 1011.1 hPa Calm   1.6 km/h 72 % 0.0 mm
22:32 16.6 °C 11.7 °C 1011.4 hPa Calm   1.6 km/h 73 % 0.0 mm
22:37 16.4 °C 11.8 °C 1011.4 hPa Calm   1.6 km/h 74 % 0.0 mm
22:42 16.3 °C 11.7 °C 1011.4 hPa Calm   1.6 km/h 74 % 0.0 mm
22:47 16.1 °C 11.7 °C 1011.4 hPa Calm   1.6 km/h 75 % 0.0 mm
22:52 16.0 °C 11.6 °C 1011.4 hPa Calm     75 % 0.0 mm
22:57 15.8 °C 11.6 °C 1011.4 hPa Calm     76 % 0.0 mm
23:02 15.7 °C 11.5 °C 1011.4 hPa Calm     76 % 0.0 mm
23:07 15.7 °C 11.7 °C 1011.4 hPa Calm     77 % 0.0 mm
23:12 15.6 °C 11.6 °C 1011.4 hPa Calm     77 % 0.0 mm
23:17 15.4 °C 11.6 °C 1011.4 hPa Calm     78 % 0.0 mm
23:22 15.3 °C 11.7 °C 1011.4 hPa Calm     79 % 0.0 mm
23:32 15.2 °C 11.4 °C 1011.4 hPa Calm     78 % 0.0 mm
23:37 14.9 °C 11.3 °C 1011.4 hPa Calm     79 % 0.0 mm
23:42 14.9 °C 11.5 °C 1011.4 hPa Calm     80 % 0.0 mm
23:47 14.9 °C 11.5 °C 1011.4 hPa Calm     80 % 0.0 mm
23:52 14.7 °C 11.3 °C 1011.4 hPa Calm     80 % 0.0 mm
23:57 14.5 °C 11.1 °C 1011.4 hPa Calm     80 % 0.0 mm
Meteo18
Compliments of Weather Underground - 4 mb

Script developed by  Jim McMurry - jmcmurry@mwt.net Adapted for the template by  Wim van der Kuil - Leuven-Template.eu

You find our weather info also at:

European Weather Network

Weather Underground

Equipment we use:

Weather-station
Davis Vue

Weather-program
Meteohub

Weather-server
Raspberry PI 2 B+

Provider
1 and 1

Davis Vue

Meteohub

Raspberry PI 2 B+

1 and 1